Weather History for KMLI - June, 2012

Change the Weather History Date:

Wednesday, June 13, 2012

  Actual Average Record
Temperature  
Mean Temperature 62 °F 71 °F  
Max Temperature 76 °F 82 °F 98 °F (1987)
Min Temperature 48 °F 60 °F 45 °F (1985)
Degree Days  
Heating Degree Days 3 1  
Month to date heating degree days 15 16  
Since 1 June heating degree days 15 16  
Since 1 July heating degree days 5050 6200  
Cooling Degree Days 0 7  
Month to date cooling degree days 48 68  
Year to date cooling degree days 197 144  
Since 1 June cooling degree days 48 68  
Growing Degree Days 12 (Base 50)    
Moisture  
Dew Point 47 °F    
Average Humidity 63    
Maximum Humidity 93    
Minimum Humidity 33    
Precipitation  
Precipitation 0.00 in 0.14 in 1.60 in (1880)
Month to date precipitation 0.39 1.93  
Year to date precipitation 13.55 15.79  
Snow  
Snow 0.00 in 0.00 in - ()
Month to date snowfall 0.0 0.0  
Since 1 June snowfall 0.0 0.0  
Since 1 July snowfall 16.9 31.6  
Snow Depth 0.00 in    
Sea Level Pressure  
Sea Level Pressure 30.12 in    
Wind  
Wind Speed 6 mph (ESE)    
Max Wind Speed 16 mph    
Max Gust Speed 22 mph    
Visibility 10 miles    
Events      
T = Trace of Precipitation, MM = Missing Value Source: NWS Daily Summary

Daily Weather History Graph

Daily Weather History Graph

Search for Another Location

Airport or City:

Trip Planner

Search our weather history database for the weather conditions in past years. The results will help you decide how hot, cold, wet, or windy it might be!

Date:

Astronomy

Jun. 13, 2012 Rise Set
Actual Time 5:27 AM CDT 8:36 PM CDT
Civil Twilight 4:53 AM CDT 9:10 PM CDT
Nautical Twilight 4:10 AM CDT 9:54 PM CDT
Astronomical Twilight 3:18 AM CDT 10:46 PM CDT
Moon 1:44 AM CDT (6/13) 3:20 PM CDT (6/13)
Length of Visible Light 16h 16m
Length of Day
15h 09m
Waning Crescent, 29% of the Moon is Illuminated
Jun 13
Waning Crescent
Jun 19
New
Jun 26
First Quarter
Jul 3
Full
Jul 10
Last Quarter

Hourly Weather History & Observations

Time (CDT) Temp. Dew Point Humidity Pressure Visibility Wind Dir Wind Speed Gust Speed Precip Events Conditions
12:52 AM 52.0 °F 48.0 °F 86% 30.13 in 10.0 mi Calm Calm - N/A   Clear
1:52 AM 51.1 °F 46.9 °F 86% 30.15 in 10.0 mi Calm Calm - N/A   Clear
2:52 AM 50.0 °F 46.9 °F 89% 30.15 in 10.0 mi Calm Calm - N/A   Clear
3:52 AM 50.0 °F 46.4 °F 87% 30.15 in 10.0 mi Calm Calm - N/A   Clear
4:52 AM 48.2 °F 46.4 °F 93% 30.15 in 10.0 mi Calm Calm - N/A   Clear
5:52 AM 48.0 °F 46.9 °F 96% 30.16 in 10.0 mi ESE 3.5 mph - N/A   Clear
6:52 AM 55.4 °F 51.8 °F 88% 30.18 in 10.0 mi Calm Calm - N/A   Clear
7:52 AM 61.0 °F 51.1 °F 70% 30.18 in 10.0 mi SSE 6.9 mph - N/A   Clear
8:52 AM 64.0 °F 50.0 °F 60% 30.18 in 10.0 mi SE 9.2 mph - N/A   Clear
9:52 AM 68.0 °F 48.0 °F 49% 30.17 in 10.0 mi SSE 11.5 mph - N/A   Clear
10:52 AM 68.0 °F 48.0 °F 49% 30.18 in 10.0 mi SE 10.4 mph - N/A   Clear
11:52 AM 70.0 °F 48.0 °F 46% 30.17 in 10.0 mi ESE 8.1 mph - N/A   Clear
12:52 PM 69.8 °F 48.2 °F 46% 30.17 in 10.0 mi ESE 8.1 mph - N/A   Clear
1:52 PM 72.0 °F 48.9 °F 44% 30.15 in 10.0 mi Variable 4.6 mph - N/A   Clear
2:52 PM 73.9 °F 48.9 °F 41% 30.12 in 10.0 mi ESE 11.5 mph 17.3 mph N/A   Clear
3:52 PM 75.0 °F 46.9 °F 37% 30.09 in 10.0 mi East 10.4 mph 17.3 mph N/A   Clear
4:52 PM 73.9 °F 46.0 °F 37% 30.07 in 10.0 mi ESE 13.8 mph - N/A   Clear
5:52 PM 75.0 °F 45.0 °F 34% 30.07 in 10.0 mi ESE 15.0 mph - N/A   Clear
6:52 PM 73.9 °F 45.0 °F 35% 30.05 in 10.0 mi SE 6.9 mph - N/A   Clear
7:52 PM 70.0 °F 46.0 °F 42% 30.04 in 10.0 mi SE 6.9 mph - N/A   Clear
8:52 PM 64.0 °F 45.0 °F 50% 30.05 in 10.0 mi ESE 3.5 mph - N/A   Clear
9:52 PM 55.9 °F 46.9 °F 72% 30.06 in 10.0 mi SE 4.6 mph - N/A   Clear
10:52 PM 57.0 °F 46.9 °F 69% 30.07 in 10.0 mi East 4.6 mph - N/A   Clear
11:52 PM 57.9 °F 44.1 °F 60% 30.05 in 10.0 mi ESE 10.4 mph - N/A   Clear